Regional Weather Roundup
Issued by NWS Charleston, WV

Home | Current Version | Previous Version | Graphics & Text | Print | Product List | Glossary On
Versions: 1 2 3 4 5 6 7 8 9 10 11 12 13 14 15 16 17 18 19 20 21 22 23 24 25 26 27 28 29 30 31 32 33 34 35 36 37 38 39 40 41 42 43 44 45 46 47 48 49 50
000
ASUS41 KRLX 011710
RWRRLX
West Virginia Regional Weather Roundup
National Weather Service Charleston WV
100 PM EDT SAT OCT 01 2016

Note: "fair" indicates few or no clouds below 12,000 feet with no
significant weather and/or obstructions to visibility.

WVZ003-011800-
Northern Panhandle of West Virginia

CITY           SKY/WX    TMP DP  RH WIND       PRES   REMARKS
WHEELING       CLOUDY    67  59  75 CALM      30.08F
$$

WVZ009-011800-
Northwest West Virginia

CITY           SKY/WX    TMP DP  RH WIND       PRES   REMARKS
PARKERSBURG    MOSUNNY   67  56  67 VRB3      30.10F
$$

WVZ006-011800-
Western West Virginia

CITY           SKY/WX    TMP DP  RH WIND       PRES   REMARKS
HUNTINGTON     CLOUDY    65  55  70 SW7       30.08F
$$

WVZ015-011800-
West Central West Virginia

CITY           SKY/WX    TMP DP  RH WIND       PRES   REMARKS
CHARLESTON     MOSUNNY   66  57  72 SW5       30.08F
$$

WVZ022-031-011800-
North Central West Virginia

CITY           SKY/WX    TMP DP  RH WIND       PRES   REMARKS
CLARKSBURG     PTSUNNY   70  58  65 W7        30.07S
MORGANTOWN     PTSUNNY   72  56  57 CALM      30.06F
$$

WVZ025-035-042-045-011800-
Southern West Virginia

CITY           SKY/WX    TMP DP  RH WIND       PRES   REMARKS
BECKLEY        MOSUNNY   67  50  54 W7        30.11F
LOGAN            N/A     68  54  60 CALM      30.10S
BLUEFIELD      MOSUNNY   67  48  50 VRB7      30.13F
LEWISBURG      MOSUNNY   68  48  49 SW6G16    30.11F
$$

WVZ047-011800-
Northern Mountains of West Virginia

CITY           SKY/WX    TMP DP  RH WIND       PRES   REMARKS
ELKINS         PTSUNNY   69  54  58 S3        30.09F
$$

WVZ052-011800-
Eastern Panhandle of West Virginia

CITY           SKY/WX    TMP DP  RH WIND       PRES   REMARKS
MARTINSBURG    CLOUDY    60  58  92 NE7       30.12F FOG
PETERSBURG     CLOUDY    62  60  94 CALM      30.12F FOG
$$



USA.gov is the U.S. government's official web portal to all federal, state and local government web resources and services.